MET'MAP v2.0
soon released !

Expected late october,
this new version will be
more efficient, smarter,
and hosted on a brand new
server x3 powerfull...
...and still free !


Not compatible ?
Try the mobile version !

LOG IN : | Subscribe | Disclaimer | Who is Orbifly ? |
ICAO code :

TAF - LFOF Alençon Valframbert - 19 Feb 2020 21:01 UTC
Data Sources :     NOAA   


- Airport Elevation : 479 ft
- IATA code : XAN
- No reported NOTAMs.


LFOF - Alençon Valframbert

Latest METAR recorded : 0000/00/00 T :19 TAF EBDT 191541Z 1919/2007 21008KT 9999 BKN035 BECMG 1919/1921 7000 -RA FEW015 OVC025 TEMPO 1922/2004 20008G18KT 4500 RADZ SCT010 BKN016 BECMG 2004/2006 5000 BR -DZ BKN010
NO TAF


MET'MAP, your aeronautical weather chart ! - Copyright ORBIFLY December 2007

Programming & Development : Alexandra Zaïnal
Co-Developer : Marc-Olivier Méhu
Technical & hardware support : Manuel Goepfert
Concept & Financing : Baudouin d'Aumeries